,,Stat5,,Stat1,,Stat2,,Stat3,,Stat4,,Wind1,,Wind1,
time,status,PA1M_AVG,status,PR1M_SUM,status,RH1M_AVG,status,SR1M_AVG,status,TA1M_AVG,status,W1dAve1m,status,W1sAve1m,
2003-09-05, 00:00:00,VALID,919.358,VALID,0,VALID,94.1483,VALID,0.0849042,VALID,20.9589,VALID,9,VALID,1.86438,
2003-09-05, 00:01:00,VALID,919.363,VALID,0,VALID,94.2602,VALID,0.0679233,VALID,20.9656,VALID,10,VALID,1.80773,
2003-09-05, 00:02:00,VALID,919.376,VALID,0,VALID,94.7066,VALID,0.0509425,VALID,20.9468,VALID,4,VALID,2.07492,
2003-09-05, 00:03:00,VALID,919.382,VALID,0,VALID,94.9622,VALID,0.0509425,VALID,20.9145,VALID,12,VALID,1.47183,
2003-09-05, 00:04:00,VALID,919.402,VALID,0,VALID,95.1669,VALID,0.0679233,VALID,20.9142,VALID,11,VALID,1.34295,
2003-09-05, 00:05:00,VALID,919.413,VALID,0,VALID,95.2979,VALID,0.0849042,VALID,20.9207,VALID,7,VALID,1.1897,
2003-09-05, 00:06:00,VALID,919.435,VALID,0,VALID,95.1313,VALID,0.0849042,VALID,20.8914,VALID,353,VALID,1.8187,
2003-09-05, 00:07:00,VALID,919.431,VALID,0,VALID,95.2864,VALID,0.0339617,VALID,20.8755,VALID,23,VALID,1.84992,
2003-09-05, 00:08:00,VALID,919.449,VALID,0,VALID,95.2419,VALID,0.0849042,VALID,20.8887,VALID,360,VALID,1.47635,
2003-09-05, 00:09:00,VALID,919.457,VALID,0,VALID,95.0626,VALID,0.0849042,VALID,20.8752,VALID,12,VALID,1.35417,
2003-09-05, 00:10:00,VALID,919.473,VALID,0,VALID,94.9787,VALID,0.0849042,VALID,20.8688,VALID,4,VALID,1.59418,
2003-09-05, 00:11:00,VALID,919.472,VALID,0,VALID,95.0893,VALID,0.0849042,VALID,20.8658,VALID,2,VALID,1.51706,
2003-09-05, 00:12:00,VALID,919.5,VALID,0,VALID,95.1834,VALID,0.0849042,VALID,20.8499,VALID,1,VALID,1.06841,
2003-09-05, 00:13:00,VALID,919.531,VALID,0,VALID,95.2686,VALID,0.0679233,VALID,20.8365,VALID,16,VALID,1.14196,
2003-09-05, 00:14:00,VALID,919.542,VALID,0,VALID,95.2623,VALID,0.101885,VALID,20.869,VALID,15,VALID,1.48371,
2003-09-05, 00:15:00,VALID,919.539,VALID,0,VALID,94.9596,VALID,0.118866,VALID,20.8682,VALID,344,VALID,1.63672,
2003-09-05, 00:16:00,VALID,919.513,VALID,0,VALID,94.9927,VALID,0.101885,VALID,20.8749,VALID,32,VALID,1.59776,
2003-09-05, 00:17:00,VALID,919.495,VALID,0,VALID,94.7333,VALID,0.0849042,VALID,20.8755,VALID,358,VALID,1.54316,
2003-09-05, 00:18:00,VALID,919.46,VALID,0,VALID,94.8147,VALID,0.0679233,VALID,20.8854,VALID,14,VALID,2.13487,
2003-09-05, 00:19:00,VALID,919.454,VALID,0,VALID,94.8439,VALID,0.101885,VALID,20.8849,VALID,2,VALID,2.5019,
2003-09-05, 00:20:00,VALID,919.422,VALID,0,VALID,94.9049,VALID,0.0679233,VALID,20.8598,VALID,335,VALID,1.94411,
2003-09-05, 00:21:00,VALID,919.417,VALID,0,VALID,95.1504,VALID,0.0849042,VALID,20.8375,VALID,11,VALID,1.3776,
2003-09-05, 00:22:00,VALID,919.411,VALID,0,VALID,95.3792,VALID,0.0849042,VALID,20.8496,VALID,17,VALID,1.33113,
2003-09-05, 00:23:00,VALID,919.409,VALID,0,VALID,95.3487,VALID,0.0509425,VALID,20.8561,VALID,20,VALID,1.78013,
2003-09-05, 00:24:00,VALID,919.372,VALID,0,VALID,94.9787,VALID,0.0849042,VALID,20.8432,VALID,11,VALID,3.17949,
2003-09-05, 00:25:00,VALID,919.345,VALID,0,VALID,94.8668,VALID,0.0679233,VALID,20.8405,VALID,348,VALID,1.95074,
2003-09-05, 00:26:00,VALID,919.337,VALID,0,VALID,95.0283,VALID,-0.0169808,VALID,20.8283,VALID,356,VALID,1.30252,
2003-09-05, 00:27:00,VALID,919.33,VALID,0,VALID,95.1173,VALID,-0.0679233,VALID,20.8162,VALID,5,VALID,2.16427,
2003-09-05, 00:28:00,VALID,919.312,VALID,0,VALID,94.9901,VALID,-0.0509425,VALID,20.8028,VALID,347,VALID,1.18359,
2003-09-05, 00:29:00,VALID,919.283,VALID,0,VALID,95.2088,VALID,-0.0849042,VALID,20.8259,VALID,8,VALID,1.05743,
2003-09-05, 00:30:00,VALID,919.245,VALID,0,VALID,95.2203,VALID,-0.0339617,VALID,20.8383,VALID,13,VALID,1.84755,
2003-09-05, 00:31:00,VALID,919.209,VALID,0,VALID,95.0372,VALID,-0.0679233,VALID,20.8585,VALID,12,VALID,2.54554,
2003-09-05, 00:32:00,VALID,919.164,VALID,0,VALID,94.9431,VALID,-0.0509425,VALID,20.8488,VALID,8,VALID,1.79194,
2003-09-05, 00:33:00,VALID,919.164,VALID,0,VALID,94.8833,VALID,-0.0339617,VALID,20.8482,VALID,14,VALID,1.6269,
2003-09-05, 00:34:00,VALID,919.145,VALID,0,VALID,94.554,VALID,-0.0169808,VALID,20.8455,VALID,7,VALID,1.55354,
2003-09-05, 00:35:00,VALID,919.127,VALID,0,VALID,94.6061,VALID,-0.0679233,VALID,20.8388,VALID,351,VALID,1.43047,
2003-09-05, 00:36:00,VALID,919.144,VALID,0,VALID,94.7078,VALID,-0.0169808,VALID,20.8318,VALID,25,VALID,1.44716,
2003-09-05, 00:37:00,VALID,919.146,VALID,0,VALID,94.7981,VALID,-0.0339617,VALID,20.8445,VALID,19,VALID,1.2169,
2003-09-05, 00:38:00,VALID,919.153,VALID,0,VALID,94.6697,VALID,-0.0849042,VALID,20.8641,VALID,7,VALID,1.1875,
2003-09-05, 00:39:00,VALID,919.148,VALID,0,VALID,94.6875,VALID,-0.0679233,VALID,20.8455,VALID,359,VALID,1.41887,
2003-09-05, 00:40:00,VALID,919.131,VALID,0,VALID,94.6443,VALID,-0.0679233,VALID,20.8393,VALID,16,VALID,1.24375,
2003-09-05, 00:41:00,VALID,919.105,VALID,0,VALID,94.877,VALID,0,VALID,20.8472,VALID,6,VALID,1.00352,
2003-09-05, 00:42:00,VALID,919.096,VALID,0,VALID,94.924,VALID,0.0339617,VALID,20.8534,VALID,356,VALID,1.45269,
2003-09-05, 00:43:00,VALID,919.097,VALID,0,VALID,95.0003,VALID,0.0339617,VALID,20.8534,VALID,15,VALID,1.47635,
2003-09-05, 00:44:00,VALID,919.097,VALID,0,VALID,94.9927,VALID,0.0849042,VALID,20.8534,VALID,352,VALID,0.934696,
2003-09-05, 00:45:00,VALID,919.102,VALID,0,VALID,94.9812,VALID,0.0679233,VALID,20.8434,VALID,342,VALID,1.55592,
2003-09-05, 00:46:00,VALID,919.1,VALID,0,VALID,94.8744,VALID,0.0679233,VALID,20.7977,VALID,348,VALID,1.77344,
2003-09-05, 00:47:00,VALID,919.102,VALID,0,VALID,94.9367,VALID,0.0679233,VALID,20.7853,VALID,359,VALID,1.6628,
2003-09-05, 00:48:00,VALID,919.091,VALID,0,VALID,95.1516,VALID,0.0339617,VALID,20.7888,VALID,355,VALID,1.76997,
2003-09-05, 00:49:00,VALID,919.085,VALID,0,VALID,95.0334,VALID,0.0339617,VALID,20.7592,VALID,344,VALID,1.93074,
2003-09-05, 00:50:00,VALID,919.059,VALID,0,VALID,95.0041,VALID,0.0679233,VALID,20.7401,VALID,343,VALID,1.48232,
2003-09-05, 00:51:00,VALID,919.037,VALID,0,VALID,95.0868,VALID,0.0169808,VALID,20.7401,VALID,17,VALID,1.90645,
2003-09-05, 00:52:00,VALID,919.025,VALID,0,VALID,94.9952,VALID,0.0339617,VALID,20.7595,VALID,2,VALID,1.23157,
2003-09-05, 00:53:00,VALID,919.025,VALID,0,VALID,94.9978,VALID,0.0169808,VALID,20.7662,VALID,360,VALID,1.125,
2003-09-05, 00:54:00,VALID,919.011,VALID,0,VALID,94.8604,VALID,0.0679233,VALID,20.7562,VALID,311,VALID,0.842928,
2003-09-05, 00:55:00,VALID,919.002,VALID,0,VALID,94.9138,VALID,0.0679233,VALID,20.7729,VALID,14,VALID,1.14643,
2003-09-05, 00:56:00,VALID,918.977,VALID,0,VALID,94.7053,VALID,0.0169808,VALID,20.7821,VALID,19,VALID,2.05609,
2003-09-05, 00:57:00,VALID,918.972,VALID,0,VALID,94.3632,VALID,0.0849042,VALID,20.7891,VALID,8,VALID,1.78217,
2003-09-05, 00:58:00,VALID,918.977,VALID,0,VALID,94.0377,VALID,0.0679233,VALID,20.802,VALID,10,VALID,2.20518,
2003-09-05, 00:59:00,VALID,918.967,VALID,0,VALID,93.8508,VALID,0.0509425,VALID,20.7958,VALID,4,VALID,2.11128,
2003-09-05, 01:00:00,VALID,918.989,VALID,0,VALID,94.1026,VALID,0.0339617,VALID,20.7918,VALID,14,VALID,1.53581,
2003-09-05, 01:01:00,VALID,918.99,VALID,0,VALID,93.9423,VALID,0.0339617,VALID,20.7823,VALID,350,VALID,1.76845,
2003-09-05, 01:02:00,VALID,918.996,VALID,0,VALID,93.9411,VALID,0,VALID,20.7788,VALID,16,VALID,2.20847,
2003-09-05, 01:03:00,VALID,919.007,VALID,0,VALID,93.9983,VALID,0.0679233,VALID,20.7689,VALID,347,VALID,1.06356,
2003-09-05, 01:04:00,VALID,919.019,VALID,0,VALID,93.9411,VALID,0.0849042,VALID,20.7858,VALID,9,VALID,1.42946,
2003-09-05, 01:05:00,VALID,919.003,VALID,0,VALID,93.8813,VALID,0.0339617,VALID,20.7823,VALID,12,VALID,1.12946,
2003-09-05, 01:06:00,VALID,919.007,VALID,0,VALID,93.9169,VALID,0.0679233,VALID,20.7985,VALID,350,VALID,0.495066,
2003-09-05, 01:07:00,VALID,918.988,VALID,0,VALID,93.7567,VALID,0.0849042,VALID,20.798,VALID,17,VALID,0.950321,
2003-09-05, 01:08:00,VALID,918.943,VALID,0,VALID,93.9995,VALID,0.0849042,VALID,20.8017,VALID,9,VALID,1.44785,
2003-09-05, 01:09:00,VALID,918.922,VALID,0,VALID,94.0987,VALID,0.0339617,VALID,20.7987,VALID,356,VALID,1.24568,
2003-09-05, 01:10:00,VALID,918.876,VALID,0,VALID,94.114,VALID,0.0679233,VALID,20.785,VALID,14,VALID,1.14443,
2003-09-05, 01:11:00,VALID,918.877,VALID,0,VALID,93.819,VALID,0.0509425,VALID,20.7928,VALID,349,VALID,1.44571,
2003-09-05, 01:12:00,VALID,918.845,VALID,0,VALID,93.5583,VALID,-0.0679233,VALID,20.7616,VALID,347,VALID,1.60377,
2003-09-05, 01:13:00,VALID,918.846,VALID,0,VALID,93.5392,VALID,-0.0509425,VALID,20.7354,VALID,355,VALID,1.01522,
2003-09-05, 01:14:00,VALID,918.847,VALID,0,VALID,93.8571,VALID,-0.0509425,VALID,20.7616,VALID,18,VALID,1.08594,
2003-09-05, 01:15:00,VALID,918.828,VALID,0,VALID,93.8152,VALID,-0.0849042,VALID,20.7705,VALID,19,VALID,1.50898,
2003-09-05, 01:16:00,VALID,918.816,VALID,0,VALID,93.7389,VALID,-0.0339617,VALID,20.7904,VALID,16,VALID,1.48633,
2003-09-05, 01:17:00,VALID,918.792,VALID,0,VALID,93.8241,VALID,-0.0679233,VALID,20.8035,VALID,2,VALID,0.598741,
2003-09-05, 01:18:00,VALID,918.776,VALID,0,VALID,93.3116,VALID,-0.0339617,VALID,20.7874,VALID,354,VALID,1.36085,
2003-09-05, 01:19:00,VALID,918.733,VALID,0,VALID,93.4947,VALID,-0.0509425,VALID,20.7804,VALID,345,VALID,0.711554,
2003-09-05, 01:20:00,VALID,918.689,VALID,0,VALID,93.7198,VALID,-0.0679233,VALID,20.8008,VALID,358,VALID,1.05469,
2003-09-05, 01:21:00,VALID,918.672,VALID,0,VALID,93.6549,VALID,-0.0849042,VALID,20.8006,VALID,7,VALID,0.990076,
2003-09-05, 01:22:00,VALID,918.632,VALID,0,VALID,93.8037,VALID,-0.0339617,VALID,20.7871,VALID,3,VALID,0.571875,
2003-09-05, 01:23:00,VALID,918.596,VALID,0,VALID,93.749,VALID,-0.0509425,VALID,20.8035,VALID,11,VALID,1.36986,
2003-09-05, 01:24:00,VALID,918.553,VALID,0,VALID,93.744,VALID,-0.0509425,VALID,20.7877,VALID,8,VALID,1.49472,
2003-09-05, 01:25:00,VALID,918.553,VALID,0,VALID,93.0331,VALID,-0.0339617,VALID,20.7486,VALID,318,VALID,1.55088,
2003-09-05, 01:26:00,VALID,918.533,VALID,0,VALID,93.2824,VALID,-0.0169808,VALID,20.7193,VALID,352,VALID,1.49453,
2003-09-05, 01:27:00,VALID,918.513,VALID,0,VALID,93.5011,VALID,0,VALID,20.7066,VALID,356,VALID,1.2866,
2003-09-05, 01:28:00,VALID,918.518,VALID,0,VALID,93.6588,VALID,-0.0679233,VALID,20.6935,VALID,1,VALID,1.30345,
2003-09-05, 01:29:00,VALID,918.539,VALID,0,VALID,93.6384,VALID,-0.0509425,VALID,20.7134,VALID,352,VALID,1.65586,
2003-09-05, 01:30:00,VALID,918.543,VALID,0,VALID,93.8381,VALID,-0.0509425,VALID,20.6937,VALID,13,VALID,1.52604,
2003-09-05, 01:31:00,VALID,918.547,VALID,0,VALID,93.9894,VALID,-0.0509425,VALID,20.7093,VALID,1,VALID,1.17545,
2003-09-05, 01:32:00,VALID,918.554,VALID,0,VALID,94.0123,VALID,-0.0169808,VALID,20.7066,VALID,13,VALID,1.16777,
2003-09-05, 01:33:00,VALID,918.539,VALID,0,VALID,93.983,VALID,-0.0339617,VALID,20.7099,VALID,7,VALID,1.66016,
2003-09-05, 01:34:00,VALID,918.522,VALID,0,VALID,93.9322,VALID,-0.0509425,VALID,20.7004,VALID,344,VALID,1.40755,
2003-09-05, 01:35:00,VALID,918.515,VALID,0,VALID,94.0263,VALID,-0.0339617,VALID,20.6776,VALID,1,VALID,0.75621,
2003-09-05, 01:36:00,VALID,918.512,VALID,0,VALID,94.1076,VALID,-0.0509425,VALID,20.6803,VALID,359,VALID,1.6433,
2003-09-05, 01:37:00,VALID,918.497,VALID,0,VALID,94.0987,VALID,-0.0339617,VALID,20.6708,VALID,9,VALID,1.36225,
2003-09-05, 01:38:00,VALID,918.484,VALID,0,VALID,94.1878,VALID,-0.0169808,VALID,20.6708,VALID,11,VALID,1.39696,
2003-09-05, 01:39:00,VALID,918.485,VALID,0,VALID,94.3518,VALID,-0.0339617,VALID,20.6907,VALID,13,VALID,1.23047,
2003-09-05, 01:40:00,VALID,918.463,VALID,0,VALID,94.4662,VALID,-0.0169808,VALID,20.6803,VALID,342,VALID,0.570946,
2003-09-05, 01:41:00,VALID,918.451,VALID,0,VALID,94.0797,VALID,0,VALID,20.6571,VALID,338,VALID,1.3824,
2003-09-05, 01:42:00,VALID,918.431,VALID,0,VALID,93.7516,VALID,-0.0339617,VALID,20.6283,VALID,336,VALID,0.98097,
2003-09-05, 01:43:00,VALID,918.427,VALID,0,VALID,93.9678,VALID,-0.0509425,VALID,20.642,VALID,22,VALID,1.0625,
2003-09-05, 01:44:00,VALID,918.42,VALID,0,VALID,93.955,VALID,-0.0509425,VALID,20.6485,VALID,359,VALID,0.974873,
2003-09-05, 01:45:00,VALID,918.41,VALID,0,VALID,93.8838,VALID,-0.0679233,VALID,20.6323,VALID,358,VALID,1.54215,
2003-09-05, 01:46:00,VALID,918.42,VALID,0,VALID,94.072,VALID,-0.0509425,VALID,20.6391,VALID,9,VALID,1.19772,
2003-09-05, 01:47:00,VALID,918.426,VALID,0,VALID,94.2195,VALID,-0.0509425,VALID,20.6455,VALID,18,VALID,1.24379,
2003-09-05, 01:48:00,VALID,918.443,VALID,0,VALID,94.4141,VALID,-0.0509425,VALID,20.6582,VALID,27,VALID,1.01425,
2003-09-05, 01:49:00,VALID,918.447,VALID,0,VALID,94.3798,VALID,-0.0679233,VALID,20.6875,VALID,20,VALID,0.877262,
2003-09-05, 01:50:00,VALID,918.472,VALID,0,VALID,94.1814,VALID,0,VALID,20.6942,VALID,21,VALID,0.794975,
2003-09-05, 01:51:00,VALID,918.469,VALID,0,VALID,94.2971,VALID,-0.0679233,VALID,20.6811,VALID,20,VALID,1.2934,
2003-09-05, 01:52:00,VALID,918.472,VALID,0,VALID,94.2882,VALID,-0.0339617,VALID,20.6935,VALID,6,VALID,1.20009,
2003-09-05, 01:53:00,VALID,918.498,VALID,0,VALID,94.0263,VALID,-0.0509425,VALID,20.6711,VALID,360,VALID,1.22636,
2003-09-05, 01:54:00,VALID,918.48,VALID,0,VALID,94.1483,VALID,-0.0509425,VALID,20.6746,VALID,21,VALID,1.72213,
2003-09-05, 01:55:00,VALID,918.495,VALID,0,VALID,94.2907,VALID,-0.0339617,VALID,20.684,VALID,11,VALID,0.950446,
2003-09-05, 01:56:00,VALID,918.495,VALID,0,VALID,94.423,VALID,0,VALID,20.6865,VALID,6,VALID,0.461607,
2003-09-05, 01:57:00,VALID,918.477,VALID,0,VALID,94.4548,VALID,0.0679233,VALID,20.6927,VALID,12,VALID,0.685444,
2003-09-05, 01:58:00,VALID,918.461,VALID,0,VALID,94.3378,VALID,0.0509425,VALID,20.6954,VALID,5,VALID,0.854968,
2003-09-05, 01:59:00,VALID,918.448,VALID,0,VALID,94.1941,VALID,0.0339617,VALID,20.6825,VALID,360,VALID,0.621484,
2003-09-05, 02:00:00,VALID,918.434,VALID,0,VALID,94.2361,VALID,0.0509425,VALID,20.6695,VALID,360,VALID,1.69161,
2003-09-05, 02:01:00,VALID,918.423,VALID,0,VALID,94.1941,VALID,0.0509425,VALID,20.6345,VALID,7,VALID,1.33847,
2003-09-05, 02:02:00,VALID,918.427,VALID,0,VALID,94.5489,VALID,0.0679233,VALID,20.6179,VALID,1,VALID,0.913862,
2003-09-05, 02:03:00,VALID,918.43,VALID,0,VALID,94.6036,VALID,0.0339617,VALID,20.6214,VALID,15,VALID,1.35597,
2003-09-05, 02:04:00,VALID,918.442,VALID,0,VALID,94.8185,VALID,0.0679233,VALID,20.6117,VALID,23,VALID,1.24079,
2003-09-05, 02:05:00,VALID,918.458,VALID,0,VALID,94.4853,VALID,0.0509425,VALID,20.602,VALID,6,VALID,1.85536,
2003-09-05, 02:06:00,VALID,918.451,VALID,0,VALID,94.5603,VALID,0.0509425,VALID,20.5761,VALID,8,VALID,1.69941,
2003-09-05, 02:07:00,VALID,918.469,VALID,0,VALID,94.7256,VALID,0.0169808,VALID,20.5734,VALID,343,VALID,1.14193,
2003-09-05, 02:08:00,VALID,918.474,VALID,0,VALID,94.8223,VALID,0,VALID,20.5436,VALID,13,VALID,1.12543,
2003-09-05, 02:09:00,VALID,918.476,VALID,0,VALID,94.8439,VALID,0.0509425,VALID,20.5637,VALID,352,VALID,1.87796,
2003-09-05, 02:10:00,VALID,918.475,VALID,0,VALID,94.6608,VALID,0.0169808,VALID,20.5344,VALID,360,VALID,2.01871,
2003-09-05, 02:11:00,VALID,918.451,VALID,0,VALID,94.6938,VALID,0.0169808,VALID,20.5215,VALID,3,VALID,1.95355,
2003-09-05, 02:12:00,VALID,918.45,VALID,0,VALID,94.9227,VALID,-0.0509425,VALID,20.536,VALID,360,VALID,0.800887,
2003-09-05, 02:13:00,VALID,918.445,VALID,0,VALID,94.9838,VALID,-0.0339617,VALID,20.523,VALID,16,VALID,1.0808,
2003-09-05, 02:14:00,VALID,918.433,VALID,0,VALID,95.1376,VALID,-0.0169808,VALID,20.5521,VALID,27,VALID,0.97903,
2003-09-05, 02:15:00,VALID,918.435,VALID,0,VALID,95.205,VALID,-0.0169808,VALID,20.5847,VALID,23,VALID,0.333615,
2003-09-05, 02:16:00,VALID,918.435,VALID,0,VALID,94.9304,VALID,-0.0509425,VALID,20.6041,VALID,359,VALID,0.509146,
2003-09-05, 02:17:00,VALID,918.422,VALID,0,VALID,94.6188,VALID,-0.0509425,VALID,20.5809,VALID,236,VALID,0.363672,
2003-09-05, 02:18:00,VALID,918.403,VALID,0,VALID,94.451,VALID,-0.0169808,VALID,20.5648,VALID,338,VALID,0.25185,
2003-09-05, 02:19:00,VALID,918.398,VALID,0,VALID,94.4624,VALID,-0.0169808,VALID,20.5683,VALID,7,VALID,0.266859,
2003-09-05, 02:20:00,VALID,918.384,VALID,0,VALID,94.5184,VALID,-0.0169808,VALID,20.5911,VALID,353,VALID,0.422656,
2003-09-05, 02:21:00,VALID,918.38,VALID,0,VALID,94.4726,VALID,-0.0679233,VALID,20.5844,VALID,285,VALID,0.246995,
2003-09-05, 02:22:00,VALID,918.369,VALID,0,VALID,94.5743,VALID,-0.0169808,VALID,20.5906,VALID,346,VALID,0.456696,
2003-09-05, 02:23:00,VALID,918.371,VALID,0,VALID,94.451,VALID,-0.0509425,VALID,20.5973,VALID,6,VALID,0.67793,
2003-09-05, 02:24:00,VALID,918.372,VALID,0,VALID,94.5133,VALID,-0.0509425,VALID,20.6011,VALID,9,VALID,0.731554,
2003-09-05, 02:25:00,VALID,918.355,VALID,0,VALID,94.4408,VALID,-0.0339617,VALID,20.5745,VALID,355,VALID,0.563585,
2003-09-05, 02:26:00,VALID,918.356,VALID,0,VALID,94.5196,VALID,-0.0339617,VALID,20.5645,VALID,12,VALID,0.339343,
2003-09-05, 02:27:00,VALID,918.339,VALID,0,VALID,94.6811,VALID,0.0679233,VALID,20.5565,VALID,14,VALID,0.690789,
2003-09-05, 02:28:00,VALID,918.316,VALID,0,VALID,94.5807,VALID,0.0509425,VALID,20.5632,VALID,14,VALID,1.20909,
2003-09-05, 02:29:00,VALID,918.298,VALID,0,VALID,94.6671,VALID,0.0679233,VALID,20.5697,VALID,14,VALID,0.966427,
2003-09-05, 02:30:00,VALID,918.262,VALID,0,VALID,94.7333,VALID,0.0679233,VALID,20.5858,VALID,20,VALID,0.612196,
2003-09-05, 02:31:00,VALID,918.258,VALID,0,VALID,94.7943,VALID,0.0169808,VALID,20.6052,VALID,24,VALID,0.579603,
2003-09-05, 02:32:00,VALID,918.238,VALID,0,VALID,94.5565,VALID,0,VALID,20.6122,VALID,2,VALID,0.964227,
2003-09-05, 02:33:00,VALID,918.218,VALID,0,VALID,94.2818,VALID,0.0849042,VALID,20.5665,VALID,333,VALID,0.976963,
2003-09-05, 02:34:00,VALID,918.192,VALID,0,VALID,94.3467,VALID,0.0509425,VALID,20.5349,VALID,346,VALID,0.731971,
2003-09-05, 02:35:00,VALID,918.154,VALID,0,VALID,94.6417,VALID,0.0509425,VALID,20.515,VALID,353,VALID,0.291385,
2003-09-05, 02:36:00,VALID,918.135,VALID,0,VALID,94.882,VALID,0.101885,VALID,20.5081,VALID,353,VALID,0.155633,
2003-09-05, 02:37:00,VALID,918.106,VALID,0,VALID,94.8617,VALID,0.0679233,VALID,20.5183,VALID,10,VALID,0.389423,
2003-09-05, 02:38:00,VALID,918.069,VALID,0,VALID,94.7129,VALID,0.0509425,VALID,20.5019,VALID,17,VALID,0.822716,
2003-09-05, 02:39:00,VALID,918.03,VALID,0,VALID,94.8236,VALID,0.0169808,VALID,20.4986,VALID,17,VALID,0.431756,
2003-09-05, 02:40:00,VALID,918.03,VALID,0,VALID,94.793,VALID,0.0339617,VALID,20.5118,VALID,17,VALID,0.0869655,
2003-09-05, 02:41:00,VALID,918.015,VALID,0,VALID,94.7969,VALID,-0.0169808,VALID,20.5059,VALID,17,VALID,0.452069,
2003-09-05, 02:42:00,VALID,918.021,VALID,0,VALID,94.8503,VALID,-0.0509425,VALID,20.523,VALID,4,VALID,0.463108,
2003-09-05, 02:43:00,VALID,918.021,VALID,0,VALID,94.6493,VALID,-0.0679233,VALID,20.5037,VALID,5,VALID,0.501953,
2003-09-05, 02:44:00,VALID,918.02,VALID,0,VALID,94.6506,VALID,-0.0339617,VALID,20.5069,VALID,358,VALID,0.639597,
2003-09-05, 02:45:00,VALID,918.003,VALID,0,VALID,94.6837,VALID,-0.0339617,VALID,20.4913,VALID,352,VALID,0.6894,
2003-09-05, 02:46:00,VALID,917.993,VALID,0,VALID,94.6862,VALID,-0.0339617,VALID,20.4584,VALID,5,VALID,0.842188,
2003-09-05, 02:47:00,VALID,917.996,VALID,0,VALID,94.9011,VALID,-0.0509425,VALID,20.4555,VALID,17,VALID,0.957366,
2003-09-05, 02:48:00,VALID,917.982,VALID,0,VALID,94.966,VALID,-0.0679233,VALID,20.4423,VALID,17,VALID,0.952303,
2003-09-05, 02:49:00,VALID,917.991,VALID,0,VALID,95.1173,VALID,-0.0679233,VALID,20.4323,VALID,21,VALID,0.808894,
2003-09-05, 02:50:00,VALID,917.996,VALID,0,VALID,95.2228,VALID,-0.0339617,VALID,20.4388,VALID,18,VALID,0.588086,
2003-09-05, 02:51:00,VALID,918.006,VALID,0,VALID,95.261,VALID,-0.0679233,VALID,20.442,VALID,15,VALID,0.617804,
2003-09-05, 02:52:00,VALID,918.019,VALID,0,VALID,95.2114,VALID,-0.0509425,VALID,20.4323,VALID,11,VALID,0.623522,
2003-09-05, 02:53:00,VALID,918.032,VALID,0,VALID,94.9711,VALID,0,VALID,20.4294,VALID,14,VALID,0.820112,
2003-09-05, 02:54:00,VALID,918.03,VALID,0,VALID,94.8617,VALID,-0.0169808,VALID,20.4035,VALID,25,VALID,0.820513,
2003-09-05, 02:55:00,VALID,918.03,VALID,0,VALID,94.9965,VALID,-0.0169808,VALID,20.3911,VALID,18,VALID,0.728365,
2003-09-05, 02:56:00,VALID,918.041,VALID,0,VALID,95.1453,VALID,-0.0169808,VALID,20.3842,VALID,22,VALID,0.583036,
2003-09-05, 02:57:00,VALID,918.037,VALID,0,VALID,95.2381,VALID,-0.0849042,VALID,20.3968,VALID,20,VALID,0.559766,
2003-09-05, 02:58:00,VALID,918.071,VALID,0,VALID,94.9482,VALID,-0.0509425,VALID,20.404,VALID,12,VALID,0.76237,
2003-09-05, 02:59:00,VALID,918.079,VALID,0,VALID,94.8337,VALID,-0.0169808,VALID,20.4011,VALID,14,VALID,0.678819,
2003-09-05, 03:00:00,VALID,918.101,VALID,0,VALID,94.8528,VALID,-0.0509425,VALID,20.4003,VALID,11,VALID,0.797508,
2003-09-05, 03:01:00,VALID,918.135,VALID,0,VALID,94.8121,VALID,-0.0679233,VALID,20.4105,VALID,18,VALID,1.07771,
2003-09-05, 03:02:00,VALID,918.154,VALID,0,VALID,94.7905,VALID,-0.0849042,VALID,20.4068,VALID,13,VALID,0.943834,
2003-09-05, 03:03:00,VALID,918.189,VALID,0,VALID,94.5909,VALID,0,VALID,20.4167,VALID,7,VALID,1.12394,
2003-09-05, 03:04:00,VALID,918.22,VALID,0,VALID,94.5069,VALID,-0.0509425,VALID,20.4038,VALID,13,VALID,1.01629,
2003-09-05, 03:05:00,VALID,918.266,VALID,0,VALID,94.4828,VALID,-0.0679233,VALID,20.4103,VALID,360,VALID,0.854852,
2003-09-05, 03:06:00,VALID,918.286,VALID,0,VALID,94.0085,VALID,-0.0679233,VALID,20.3978,VALID,10,VALID,1.29941,
2003-09-05, 03:07:00,VALID,918.306,VALID,0,VALID,93.6448,VALID,-0.0849042,VALID,20.3683,VALID,352,VALID,1.08575,
2003-09-05, 03:08:00,VALID,918.323,VALID,0,VALID,93.6969,VALID,-0.0679233,VALID,20.3615,VALID,6,VALID,0.944336,
2003-09-05, 03:09:00,VALID,918.311,VALID,0,VALID,93.7936,VALID,-0.0849042,VALID,20.3553,VALID,11,VALID,1.00267,
2003-09-05, 03:10:00,VALID,918.303,VALID,0,VALID,93.9029,VALID,-0.0509425,VALID,20.3556,VALID,13,VALID,0.810033,
2003-09-05, 03:11:00,VALID,918.285,VALID,0,VALID,94.0669,VALID,-0.0509425,VALID,20.3615,VALID,4,VALID,0.727344,
2003-09-05, 03:12:00,VALID,918.254,VALID,0,VALID,93.8253,VALID,0,VALID,20.367,VALID,334,VALID,0.348958,
2003-09-05, 03:13:00,VALID,918.244,VALID,0,VALID,93.4706,VALID,0.0169808,VALID,20.3734,VALID,17,VALID,0.589509,
2003-09-05, 03:14:00,VALID,918.235,VALID,0,VALID,93.2035,VALID,0,VALID,20.3864,VALID,14,VALID,0.872461,
2003-09-05, 03:15:00,VALID,918.23,VALID,0,VALID,92.8538,VALID,0,VALID,20.3985,VALID,19,VALID,0.557509,
2003-09-05, 03:16:00,VALID,918.235,VALID,0,VALID,92.6784,VALID,0.0169808,VALID,20.4179,VALID,18,VALID,0.421224,
2003-09-05, 03:17:00,VALID,918.237,VALID,0,VALID,92.6542,VALID,0,VALID,20.4437,VALID,17,VALID,0.245192,
2003-09-05, 03:18:00,VALID,918.252,VALID,0,VALID,92.4139,VALID,0,VALID,20.4537,VALID,9,VALID,0.326891,
2003-09-05, 03:19:00,VALID,918.264,VALID,0,VALID,92.3261,VALID,0.0339617,VALID,20.4696,VALID,360,VALID,0.241365,
2003-09-05, 03:20:00,VALID,918.279,VALID,0,VALID,92.1316,VALID,0.0169808,VALID,20.4703,VALID,360,VALID,0.42272,
2003-09-05, 03:21:00,VALID,918.279,VALID,0,VALID,92.0082,VALID,0,VALID,20.4504,VALID,339,VALID,0.578993,
2003-09-05, 03:22:00,VALID,918.285,VALID,0,VALID,91.993,VALID,0,VALID,20.4674,VALID,314,VALID,0.262458,
2003-09-05, 03:23:00,VALID,918.281,VALID,0,VALID,91.642,VALID,0,VALID,20.4435,VALID,314,VALID,0.130757,
2003-09-05, 03:24:00,VALID,918.277,VALID,0,VALID,91.9726,VALID,0,VALID,20.4805,VALID,293,VALID,0.274239,
2003-09-05, 03:25:00,VALID,918.273,VALID,0,VALID,91.6395,VALID,0.0339617,VALID,20.4857,VALID,323,VALID,0.535457,
2003-09-05, 03:26:00,VALID,918.273,VALID,0,VALID,91.2567,VALID,-0.0169808,VALID,20.4994,VALID,352,VALID,0.432644,
2003-09-05, 03:27:00,VALID,918.259,VALID,0,VALID,91.0482,VALID,-0.101885,VALID,20.5139,VALID,348,VALID,0.217722,
2003-09-05, 03:28:00,VALID,918.259,VALID,0,VALID,91.0265,VALID,-0.101885,VALID,20.523,VALID,348,VALID,0.0927484,
2003-09-05, 03:29:00,VALID,918.253,VALID,0,VALID,90.9668,VALID,-0.135847,VALID,20.5596,VALID,348,VALID,0,
2003-09-05, 03:30:00,VALID,918.25,VALID,0,VALID,90.8422,VALID,-0.118866,VALID,20.5882,VALID,348,VALID,0,
2003-09-05, 03:31:00,VALID,918.227,VALID,0,VALID,91.0507,VALID,-0.101885,VALID,20.611,VALID,348,VALID,0,
2003-09-05, 03:32:00,VALID,918.225,VALID,0,VALID,91.0952,VALID,-0.0849042,VALID,20.6197,VALID,348,VALID,0.0449747,
2003-09-05, 03:33:00,VALID,918.213,VALID,0,VALID,91.6255,VALID,-0.101885,VALID,20.659,VALID,348,VALID,0.0976563,